START_TIME,STEP,MOV.,AL01,t_acc.,AL02,t_acc.,E37,t_acc.,H21,t_acc.
1981-08-25 09:00:35.280 ,1,0,0.,24.0,0.,24.0,0.,24.0,0.,24.0
1981-08-25 09:00:59.280 ,2,1,0.,24.0,0.,24.0,0.,24.0,0.,24.0
1981-08-25 09:01:23.280 ,2,0,0.,24.0,0.,24.0,0.,24.0,0.,24.0
1981-08-25 09:01:47.280 ,3,1,0.,24.0,0.,24.0,0.,24.0,0.,24.0
1981-08-25 09:02:11.280 ,3,0,0.,24.0,0.,24.0,0.,24.0,0.,24.0
1981-08-25 09:02:35.280 ,4,1,0.,24.0,0.,24.0,0.,24.0,0.,24.0
1981-08-25 09:02:59.280 ,4,0,0.,24.0,0.,24.0,0.,24.0,0.,24.0
1981-08-25 09:03:23.280 ,5,1,0.,24.0,0.,24.0,0.,24.0,0.,24.0
1981-08-25 09:03:47.280 ,5,0,0.,24.0,0.,24.0,0.,24.0,0.,24.0
1981-08-25 09:04:11.280 ,6,1,0.,24.0,0.,24.0,0.,24.0,0.,24.0
1981-08-25 09:04:35.280 ,6,0,0.,24.0,0.,24.0,0.,24.0,0.,24.0
1981-08-25 09:04:59.280 ,7,1,8.,24.0,0.,24.0,0.,24.0,0.,24.0
1981-08-25 09:05:23.280 ,7,0,34.,24.0,0.,24.0,0.,24.0,0.,24.0
1981-08-25 09:05:47.280 ,7,1,30.,24.0,0.,24.0,0.,24.0,0.,24.0
1981-08-25 09:06:11.280 ,7,0,35.,24.0,0.,24.0,0.,24.0,0.,24.0
1981-08-25 09:06:35.280 ,6,1,20.,24.0,0.,24.0,0.,24.0,0.,24.0
1981-08-25 09:06:59.280 ,6,0,0.,24.0,0.,24.0,0.,24.0,0.,24.0
1981-08-25 09:07:23.280 ,5,1,1.,24.0,0.,24.0,0.,24.0,0.,24.0
1981-08-25 09:07:47.280 ,5,0,0.,24.0,0.,24.0,0.,24.0,0.,24.0
1981-08-25 09:08:11.280 ,4,1,0.,24.0,0.,24.0,0.,24.0,0.,24.0
1981-08-25 09:08:35.280 ,4,0,0.,24.0,0.,24.0,0.,24.0,0.,24.0
1981-08-25 09:08:59.280 ,3,1,0.,24.0,0.,24.0,0.,24.0,0.,24.0
1981-08-25 09:09:23.280 ,3,0,0.,24.0,0.,24.0,0.,24.0,0.,24.0
1981-08-25 09:09:47.280 ,2,1,0.,24.0,0.,24.0,0.,24.0,0.,24.0
1981-08-25 09:10:11.280 ,2,0,0.,24.0,0.,24.0,0.,24.0,0.,24.0
1981-08-25 09:10:35.280 ,1,1,0.,24.0,0.,24.0,0.,24.0,0.,24.0
1981-08-25 09:10:59.280 ,1,0,0.,24.0,0.,24.0,0.,24.0,0.,24.0
1981-08-25 09:11:23.280 ,0,1,0.,24.0,1.,24.0,0.,24.0,0.,24.0
1981-08-25 09:11:47.280 ,0,0,0.,24.0,0.,24.0,0.,24.0,0.,24.0
1981-08-25 09:12:11.280 ,0,1,0.,24.0,0.,24.0,0.,24.0,0.,24.0
1981-08-25 09:12:35.280 ,0,0,0.,24.0,0.,24.0,0.,24.0,0.,24.0
1981-08-25 09:12:59.280 ,1,1,0.,24.0,0.,24.0,0.,24.0,0.,24.0
1981-08-25 09:13:23.280 ,1,0,0.,24.0,0.,24.0,0.,24.0,0.,24.0
1981-08-25 09:13:47.280 ,2,1,1.,24.0,0.,24.0,0.,24.0,0.,24.0
1981-08-25 09:14:11.280 ,2,0,0.,24.0,0.,24.0,0.,24.0,0.,24.0
1981-08-25 09:14:35.280 ,3,1,0.,24.0,0.,24.0,0.,24.0,0.,24.0
1981-08-25 09:14:59.280 ,3,0,0.,24.0,0.,24.0,0.,24.0,0.,24.0
1981-08-25 09:15:23.280 ,4,1,0.,24.0,0.,24.0,0.,24.0,0.,24.0
1981-08-25 09:15:47.280 ,4,0,0.,24.0,0.,24.0,0.,24.0,0.,24.0
1981-08-25 09:16:11.280 ,5,1,1.,24.0,0.,24.0,0.,24.0,0.,24.0
1981-08-25 09:16:35.280 ,5,0,0.,24.0,0.,24.0,0.,24.0,0.,24.0
1981-08-25 09:16:59.280 ,6,1,0.,24.0,0.,24.0,0.,24.0,0.,24.0
1981-08-25 09:17:23.280 ,6,0,0.,24.0,0.,24.0,0.,24.0,0.,24.0
1981-08-25 09:17:47.280 ,7,1,6.,24.0,0.,24.0,0.,24.0,0.,24.0
1981-08-25 09:18:11.280 ,7,0,31.,24.0,0.,24.0,0.,24.0,0.,24.0
1981-08-25 09:18:35.280 ,7,1,30.,24.0,0.,24.0,0.,24.0,0.,24.0
1981-08-25 09:18:59.280 ,7,0,36.,24.0,0.,24.0,0.,24.0,0.,24.0
1981-08-25 09:19:23.280 ,6,1,31.,24.0,0.,24.0,0.,24.0,0.,24.0
1981-08-25 09:19:47.280 ,6,0,0.,24.0,0.,24.0,0.,24.0,0.,24.0
1981-08-25 09:20:11.280 ,5,1,0.,24.0,0.,24.0,0.,24.0,0.,24.0
1981-08-25 09:20:35.280 ,5,0,0.,24.0,0.,24.0,0.,24.0,0.,24.0
1981-08-25 09:20:59.280 ,4,1,0.,24.0,0.,24.0,0.,24.0,0.,24.0
1981-08-25 09:21:23.280 ,4,0,0.,24.0,0.,24.0,0.,24.0,0.,24.0
1981-08-25 09:21:47.280 ,3,1,0.,24.0,0.,24.0,0.,24.0,0.,24.0
1981-08-25 09:22:11.280 ,3,0,0.,24.0,0.,24.0,0.,24.0,0.,24.0
1981-08-25 09:22:35.280 ,2,1,0.,24.0,0.,24.0,0.,24.0,0.,24.0
1981-08-25 09:22:59.280 ,2,0,0.,24.0,0.,24.0,0.,24.0,0.,24.0
1981-08-25 09:23:23.280 ,1,1,0.,24.0,0.,24.0,0.,24.0,0.,24.0
1981-08-25 09:23:47.280 ,1,0,0.,24.0,0.,24.0,0.,24.0,0.,24.0
1981-08-25 09:24:11.280 ,0,1,0.,24.0,0.,24.0,0.,24.0,0.,24.0
1981-08-25 09:24:35.280 ,0,0,0.,24.0,0.,24.0,0.,24.0,0.,24.0
1981-08-25 09:24:59.280 ,0,1,0.,24.0,0.,24.0,0.,24.0,0.,24.0
1981-08-25 09:25:23.280 ,0,0,1.,24.0,0.,24.0,0.,24.0,0.,24.0
1981-08-25 09:25:47.280 ,1,1,0.,24.0,0.,24.0,0.,24.0,0.,24.0
1981-08-25 09:26:11.280 ,1,0,0.,24.0,0.,24.0,0.,24.0,0.,24.0
1981-08-25 09:26:35.280 ,2,1,0.,24.0,0.,24.0,0.,24.0,0.,24.0
1981-08-25 09:26:59.280 ,2,0,0.,24.0,0.,24.0,0.,24.0,0.,24.0
1981-08-25 09:27:23.280 ,3,1,0.,24.0,0.,24.0,0.,24.0,0.,24.0
1981-08-25 09:27:47.280 ,3,0,1.,24.0,0.,24.0,0.,24.0,0.,24.0
1981-08-25 09:28:11.280 ,4,1,0.,24.0,0.,24.0,0.,24.0,0.,24.0
1981-08-25 09:28:35.280 ,4,0,0.,24.0,0.,24.0,0.,24.0,0.,24.0
1981-08-25 09:28:59.280 ,5,1,0.,24.0,0.,24.0,0.,24.0,0.,24.0
1981-08-25 09:29:23.280 ,5,0,0.,24.0,0.,24.0,0.,24.0,0.,24.0
1981-08-25 09:29:47.280 ,6,1,0.,24.0,0.,24.0,0.,24.0,0.,24.0
1981-08-25 09:30:11.280 ,6,0,0.,24.0,0.,24.0,0.,24.0,0.,24.0
1981-08-25 09:30:35.280 ,7,1,9.,24.0,0.,24.0,0.,24.0,0.,24.0
1981-08-25 09:30:59.280 ,7,0,44.,24.0,0.,24.0,0.,24.0,0.,24.0
1981-08-25 09:31:23.280 ,7,1,34.,24.0,0.,24.0,0.,24.0,0.,24.0
1981-08-25 09:31:47.280 ,7,0,35.,24.0,0.,24.0,0.,24.0,0.,24.0
1981-08-25 09:32:11.280 ,6,1,20.,24.0,0.,24.0,0.,24.0,0.,24.0
1981-08-25 09:32:35.280 ,6,0,0.,24.0,0.,24.0,0.,24.0,0.,24.0
1981-08-25 09:32:59.280 ,5,1,0.,24.0,0.,24.0,0.,24.0,0.,24.0
1981-08-25 09:33:23.280 ,5,0,0.,24.0,0.,24.0,0.,24.0,0.,24.0
1981-08-25 09:33:47.280 ,4,1,0.,24.0,0.,24.0,0.,24.0,0.,24.0
1981-08-25 09:34:11.280 ,4,0,0.,24.0,0.,24.0,0.,24.0,0.,24.0
1981-08-25 09:34:35.280 ,0,0,,0,,0,,0,,0
1981-08-25 09:34:59.280 ,0,0,,0,,0,,0,,0
1981-08-25 09:34:59.280 ,3,0,0.,24.0,0.,24.0,0.,24.0,0.,24.0
1981-08-25 09:35:23.280 ,2,1,0.,24.0,0.,24.0,0.,24.0,0.,24.0
1981-08-25 09:35:47.280 ,2,0,0.,24.0,0.,24.0,0.,24.0,0.,24.0
1981-08-25 09:36:11.280 ,1,1,1.,24.0,0.,24.0,0.,24.0,0.,24.0
1981-08-25 09:36:35.280 ,1,0,0.,24.0,0.,24.0,0.,24.0,0.,24.0
1981-08-25 09:36:59.280 ,0,1,0.,24.0,0.,24.0,0.,24.0,0.,24.0
1981-08-25 09:37:23.280 ,0,0,0.,24.0,0.,24.0,0.,24.0,0.,24.0
1981-08-25 09:38:35.280 ,0,0,0.,24.0,0.,24.0,0.,24.0,0.,24.0
1981-08-25 09:38:59.280 ,0,0,0.,24.0,0.,24.0,0.,24.0,0.,24.0
1981-08-25 09:39:23.280 ,2,1,0.,24.0,0.,24.0,0.,24.0,0.,24.0
1981-08-25 09:39:47.280 ,2,0,0.,24.0,0.,24.0,0.,24.0,0.,24.0
1981-08-25 09:40:11.280 ,3,1,0.,24.0,0.,24.0,0.,24.0,0.,24.0
1981-08-25 09:40:35.280 ,3,0,0.,24.0,0.,24.0,0.,24.0,0.,24.0
1981-08-25 09:40:59.280 ,4,1,0.,24.0,0.,24.0,0.,24.0,0.,24.0
1981-08-25 09:41:23.280 ,4,0,0.,24.0,0.,24.0,0.,24.0,0.,24.0
1981-08-25 09:41:47.280 ,5,1,0.,24.0,0.,24.0,0.,24.0,0.,24.0
1981-08-25 09:42:11.280 ,5,0,0.,24.0,0.,24.0,0.,24.0,0.,24.0
1981-08-25 09:42:35.280 ,6,1,0.,24.0,0.,24.0,0.,24.0,0.,24.0
1981-08-25 09:42:59.280 ,6,0,0.,24.0,0.,24.0,0.,24.0,0.,24.0
1981-08-25 09:43:23.280 ,7,1,5.,24.0,0.,24.0,0.,24.0,0.,24.0
1981-08-25 09:43:47.280 ,7,0,27.,24.0,0.,24.0,0.,24.0,0.,24.0
1981-08-25 09:44:11.280 ,7,1,36.,24.0,0.,24.0,0.,24.0,0.,24.0
1981-08-25 09:44:35.280 ,7,0,21.,24.0,0.,24.0,0.,24.0,0.,24.0
1981-08-25 09:44:59.280 ,6,1,20.,24.0,0.,24.0,0.,24.0,0.,24.0
1981-08-25 09:45:23.280 ,6,0,0.,24.0,0.,24.0,0.,24.0,0.,24.0
1981-08-25 09:45:47.280 ,5,1,0.,24.0,0.,24.0,0.,24.0,0.,24.0
1981-08-25 09:46:11.280 ,5,0,0.,24.0,0.,24.0,0.,24.0,0.,24.0
1981-08-25 09:46:35.280 ,4,1,0.,24.0,0.,24.0,0.,24.0,0.,24.0
1981-08-25 09:46:59.280 ,4,0,0.,24.0,0.,24.0,0.,24.0,0.,24.0
1981-08-25 09:47:23.280 ,3,1,0.,24.0,0.,24.0,0.,24.0,0.,24.0
1981-08-25 09:47:47.280 ,3,0,0.,24.0,0.,24.0,0.,24.0,0.,24.0
1981-08-25 09:48:11.280 ,2,1,0.,24.0,0.,24.0,0.,24.0,0.,24.0
1981-08-25 09:48:35.280 ,2,0,0.,24.0,0.,24.0,0.,24.0,0.,24.0
1981-08-25 09:48:59.280 ,1,1,0.,24.0,0.,24.0,0.,24.0,0.,24.0
1981-08-25 09:49:23.280 ,1,0,0.,24.0,0.,24.0,0.,24.0,0.,24.0
1981-08-25 09:49:47.280 ,0,1,0.,24.0,0.,24.0,0.,24.0,0.,24.0
1981-08-25 09:50:11.280 ,0,0,0.,24.0,0.,24.0,0.,24.0,0.,24.0
1981-08-25 09:50:35.280 ,0,1,0.,24.0,0.,24.0,0.,24.0,0.,24.0
1981-08-25 09:50:59.280 ,0,0,0.,24.0,0.,24.0,0.,24.0,0.,24.0
1981-08-25 09:51:23.280 ,1,1,0.,24.0,0.,24.0,0.,24.0,0.,24.0
1981-08-25 09:51:47.280 ,1,0,0.,24.0,0.,24.0,0.,24.0,0.,24.0
1981-08-25 09:52:11.280 ,2,1,0.,24.0,0.,24.0,0.,24.0,0.,24.0
1981-08-25 09:52:35.280 ,2,0,0.,24.0,0.,24.0,0.,24.0,0.,24.0
1981-08-25 09:52:59.280 ,3,1,0.,24.0,0.,24.0,0.,24.0,0.,24.0
1981-08-25 09:53:23.280 ,3,0,0.,24.0,0.,24.0,0.,24.0,0.,24.0
1981-08-25 09:53:47.280 ,4,1,0.,24.0,0.,24.0,0.,24.0,0.,24.0
1981-08-25 09:54:11.280 ,4,0,0.,24.0,0.,24.0,0.,24.0,0.,24.0
1981-08-25 09:54:35.280 ,5,1,1.,24.0,0.,24.0,0.,24.0,0.,24.0
1981-08-25 09:54:59.280 ,5,0,0.,24.0,0.,24.0,0.,24.0,0.,24.0
1981-08-25 09:55:23.280 ,6,1,0.,24.0,0.,24.0,0.,24.0,0.,24.0
1981-08-25 09:55:47.280 ,6,0,0.,24.0,0.,24.0,0.,24.0,0.,24.0
1981-08-25 09:56:11.280 ,7,1,11.,24.0,0.,24.0,0.,24.0,0.,24.0
1981-08-25 09:56:35.280 ,7,0,25.,24.0,0.,24.0,0.,24.0,0.,24.0
1981-08-25 09:56:59.280 ,7,1,30.,24.0,0.,24.0,0.,24.0,0.,24.0
1981-08-25 09:57:23.280 ,7,0,30.,24.0,0.,24.0,0.,24.0,0.,24.0
1981-08-25 09:57:47.280 ,6,1,25.,24.0,0.,24.0,0.,24.0,0.,24.0
1981-08-25 09:58:11.280 ,6,0,0.,24.0,0.,24.0,0.,24.0,0.,24.0
1981-08-25 09:58:35.280 ,5,1,0.,24.0,0.,24.0,0.,24.0,0.,24.0
1981-08-25 09:58:59.280 ,5,0,0.,24.0,0.,24.0,0.,24.0,0.,24.0
1981-08-25 09:59:23.280 ,4,1,0.,24.0,0.,24.0,0.,24.0,0.,24.0
1981-08-25 09:59:47.280 ,4,0,1.,24.0,0.,24.0,0.,24.0,0.,24.0
1981-08-25 10:00:11.280 ,3,1,0.,24.0,0.,24.0,0.,24.0,0.,24.0
1981-08-25 10:00:35.280 ,3,0,0.,24.0,0.,24.0,0.,24.0,0.,24.0
1981-08-25 10:00:59.280 ,2,1,0.,24.0,0.,24.0,0.,24.0,0.,24.0
1981-08-25 10:01:23.280 ,2,0,0.,24.0,0.,24.0,0.,24.0,0.,24.0
1981-08-25 10:01:47.280 ,1,1,0.,24.0,0.,24.0,0.,24.0,0.,24.0
1981-08-25 10:02:11.280 ,1,0,0.,24.0,0.,24.0,0.,24.0,0.,24.0
1981-08-25 10:02:35.280 ,0,1,0.,24.0,0.,24.0,0.,24.0,0.,24.0
1981-08-25 10:02:59.280 ,0,0,0.,24.0,0.,24.0,0.,24.0,0.,24.0
1981-08-25 10:03:23.280 ,0,1,0.,24.0,0.,24.0,0.,24.0,0.,24.0
1981-08-25 10:03:47.280 ,0,0,0.,24.0,0.,24.0,0.,24.0,0.,24.0
1981-08-25 10:04:11.280 ,1,1,0.,24.0,0.,24.0,0.,24.0,0.,24.0
1981-08-25 10:04:35.280 ,1,0,0.,24.0,0.,24.0,0.,24.0,0.,24.0
1981-08-25 10:04:59.280 ,2,1,1.,24.0,0.,24.0,0.,24.0,0.,24.0
1981-08-25 10:05:23.280 ,0,0,0.,24.0,0.,24.0,0.,24.0,0.,24.0
1981-08-25 10:05:52.080 ,0,0,0.,24.0,0.,24.0,0.,24.0,0.,24.0
1981-08-25 10:06:11.280 ,0,0,0.,24.0,0.,24.0,0.,24.0,0.,24.0
1981-08-25 10:06:35.270 ,4,1,0.,24.0,0.,24.0,0.,24.0,0.,24.0
1981-08-25 10:06:59.270 ,4,0,0.,24.0,0.,24.0,0.,24.0,0.,24.0
1981-08-25 10:07:23.270 ,5,1,0.,24.0,0.,24.0,0.,24.0,0.,24.0
1981-08-25 10:07:47.270 ,5,0,0.,24.0,0.,24.0,0.,24.0,0.,24.0
1981-08-25 10:08:11.270 ,6,1,0.,24.0,0.,24.0,0.,24.0,0.,24.0
1981-08-25 10:08:35.270 ,6,0,0.,24.0,0.,24.0,0.,24.0,0.,24.0
1981-08-25 10:08:59.270 ,7,1,7.,24.0,0.,24.0,0.,24.0,0.,24.0
1981-08-25 10:09:23.270 ,7,0,31.,24.0,0.,24.0,0.,24.0,0.,24.0
1981-08-25 10:09:47.270 ,7,1,27.,24.0,0.,24.0,0.,24.0,0.,24.0
1981-08-25 10:10:11.270 ,7,0,25.,24.0,0.,24.0,0.,24.0,0.,24.0
1981-08-25 10:10:35.270 ,6,1,22.,24.0,0.,24.0,0.,24.0,0.,24.0
1981-08-25 10:10:59.270 ,6,0,0.,24.0,0.,24.0,0.,24.0,0.,24.0
1981-08-25 10:11:23.270 ,5,1,1.,24.0,0.,24.0,0.,24.0,0.,24.0
1981-08-25 10:11:47.270 ,5,0,0.,24.0,0.,24.0,0.,24.0,0.,24.0
1981-08-25 10:12:11.270 ,4,1,0.,24.0,0.,24.0,0.,24.0,0.,24.0
1981-08-25 10:12:35.270 ,4,0,0.,24.0,0.,24.0,0.,24.0,0.,24.0
1981-08-25 10:12:59.270 ,3,1,0.,24.0,0.,24.0,0.,24.0,0.,24.0
1981-08-25 10:13:23.270 ,3,0,0.,24.0,0.,24.0,0.,24.0,0.,24.0
1981-08-25 10:13:47.270 ,2,1,0.,24.0,0.,24.0,0.,24.0,0.,24.0
1981-08-25 10:14:11.270 ,2,0,0.,24.0,0.,24.0,0.,24.0,0.,24.0
1981-08-25 10:14:35.270 ,1,1,0.,24.0,0.,24.0,0.,24.0,0.,24.0
1981-08-25 10:14:59.270 ,1,0,0.,24.0,0.,24.0,0.,24.0,0.,24.0
1981-08-25 10:15:23.270 ,0,1,0.,24.0,0.,24.0,0.,24.0,0.,24.0
1981-08-25 10:15:47.270 ,0,0,0.,24.0,0.,24.0,0.,24.0,0.,24.0
1981-08-25 10:16:11.270 ,0,1,0.,24.0,0.,24.0,0.,24.0,0.,24.0
1981-08-25 10:16:35.270 ,0,0,0.,24.0,0.,24.0,0.,24.0,0.,24.0
1981-08-25 10:16:59.270 ,1,1,1.,24.0,0.,24.0,0.,24.0,0.,24.0
1981-08-25 10:17:23.270 ,1,0,0.,24.0,0.,24.0,0.,24.0,0.,24.0
1981-08-25 10:17:47.270 ,2,1,0.,24.0,0.,24.0,0.,24.0,0.,24.0
1981-08-25 10:18:11.270 ,2,0,1.,24.0,0.,24.0,0.,24.0,0.,24.0
1981-08-25 10:18:35.270 ,3,1,0.,24.0,0.,24.0,0.,24.0,0.,24.0
1981-08-25 10:18:59.270 ,3,0,0.,24.0,0.,24.0,0.,24.0,0.,24.0
1981-08-25 10:19:23.270 ,4,1,0.,24.0,0.,24.0,0.,24.0,0.,24.0
1981-08-25 10:19:47.270 ,4,0,0.,24.0,0.,24.0,0.,24.0,0.,24.0
1981-08-25 10:20:11.270 ,5,1,0.,24.0,0.,24.0,0.,24.0,0.,24.0
1981-08-25 10:20:35.270 ,5,0,0.,24.0,0.,24.0,0.,24.0,0.,24.0
1981-08-25 10:20:59.270 ,6,1,0.,24.0,0.,24.0,0.,24.0,0.,24.0
1981-08-25 10:21:23.270 ,6,0,0.,24.0,0.,24.0,0.,24.0,0.,24.0
1981-08-25 10:21:47.270 ,7,1,9.,24.0,0.,24.0,0.,24.0,0.,24.0
1981-08-25 10:22:11.270 ,7,0,34.,24.0,1.,24.0,0.,24.0,0.,24.0
1981-08-25 10:22:35.270 ,7,1,22.,24.0,0.,24.0,0.,24.0,0.,24.0
1981-08-25 10:22:59.270 ,7,0,23.,24.0,0.,24.0,0.,24.0,0.,24.0
1981-08-25 10:23:23.270 ,6,1,16.,24.0,0.,24.0,0.,24.0,0.,24.0
1981-08-25 10:23:47.270 ,6,0,0.,24.0,0.,24.0,0.,24.0,0.,24.0
1981-08-25 10:24:11.270 ,5,1,0.,24.0,0.,24.0,0.,24.0,0.,24.0
1981-08-25 10:24:35.270 ,5,0,0.,24.0,0.,24.0,0.,24.0,0.,24.0
1981-08-25 10:24:59.270 ,4,1,0.,24.0,0.,24.0,0.,24.0,0.,24.0
1981-08-25 10:25:23.270 ,4,0,0.,24.0,0.,24.0,0.,24.0,0.,24.0
1981-08-25 10:25:47.270 ,3,1,0.,24.0,0.,24.0,0.,24.0,0.,24.0
1981-08-25 10:26:11.270 ,3,0,1.,24.0,0.,24.0,0.,24.0,0.,24.0
1981-08-25 10:26:35.270 ,2,1,0.,24.0,0.,24.0,0.,24.0,0.,24.0
1981-08-25 10:26:59.270 ,2,0,0.,24.0,0.,24.0,0.,24.0,0.,24.0
1981-08-25 10:27:23.270 ,1,1,0.,24.0,0.,24.0,0.,24.0,0.,24.0
1981-08-25 10:27:47.270 ,1,0,0.,24.0,0.,24.0,0.,24.0,0.,24.0
1981-08-25 10:28:11.270 ,0,1,0.,24.0,0.,24.0,0.,24.0,0.,24.0
1981-08-25 10:28:35.270 ,0,0,1.,24.0,0.,24.0,0.,24.0,0.,24.0
1981-08-25 10:28:59.270 ,0,1,0.,24.0,0.,24.0,0.,24.0,0.,24.0
1981-08-25 10:29:23.270 ,0,0,0.,24.0,0.,24.0,0.,24.0,0.,24.0
1981-08-25 10:29:47.270 ,1,1,0.,24.0,0.,24.0,0.,24.0,0.,24.0
1981-08-25 10:30:11.270 ,1,0,0.,24.0,0.,24.0,0.,24.0,0.,24.0
1981-08-25 10:30:35.270 ,2,1,0.,24.0,0.,24.0,0.,24.0,0.,24.0
1981-08-25 10:30:59.270 ,2,0,0.,24.0,0.,24.0,0.,24.0,0.,24.0
1981-08-25 10:31:23.270 ,3,1,0.,24.0,0.,24.0,0.,24.0,0.,24.0
1981-08-25 10:31:47.270 ,3,0,0.,24.0,0.,24.0,0.,24.0,0.,24.0
1981-08-25 10:32:11.270 ,4,1,0.,24.0,0.,24.0,0.,24.0,0.,24.0
1981-08-25 10:32:35.270 ,4,0,1.,24.0,0.,24.0,0.,24.0,0.,24.0
1981-08-25 10:32:59.270 ,5,1,0.,24.0,0.,24.0,0.,24.0,0.,24.0
1981-08-25 10:33:23.270 ,5,0,0.,24.0,0.,24.0,0.,24.0,0.,24.0
1981-08-25 10:33:47.270 ,6,1,0.,24.0,0.,24.0,0.,24.0,0.,24.0
1981-08-25 10:34:11.270 ,6,0,1.,24.0,0.,24.0,0.,24.0,0.,24.0
1981-08-25 10:34:35.270 ,7,1,5.,24.0,0.,24.0,0.,24.0,0.,24.0
1981-08-25 10:34:59.270 ,7,0,35.,24.0,0.,24.0,0.,24.0,0.,24.0
1981-08-25 10:35:23.270 ,7,1,27.,24.0,0.,24.0,0.,24.0,0.,24.0
1981-08-25 10:35:47.270 ,7,0,41.,24.0,0.,24.0,0.,24.0,0.,24.0
1981-08-25 10:36:11.270 ,6,1,25.,24.0,0.,24.0,0.,24.0,0.,24.0
1981-08-25 10:36:35.270 ,6,0,0.,24.0,0.,24.0,0.,24.0,0.,24.0
1981-08-25 10:36:59.270 ,5,1,0.,24.0,0.,24.0,0.,24.0,0.,24.0
1981-08-25 10:37:23.270 ,5,0,0.,24.0,0.,24.0,0.,24.0,0.,24.0
1981-08-25 10:37:47.270 ,4,1,0.,24.0,0.,24.0,0.,24.0,0.,24.0
1981-08-25 10:38:11.270 ,4,0,0.,24.0,0.,24.0,0.,24.0,0.,24.0
1981-08-25 10:38:35.270 ,3,1,0.,24.0,0.,24.0,0.,24.0,0.,24.0
1981-08-25 10:38:59.270 ,3,0,0.,24.0,0.,24.0,0.,24.0,0.,24.0
1981-08-25 10:39:23.270 ,2,1,0.,24.0,0.,24.0,0.,24.0,0.,24.0
1981-08-25 10:39:47.270 ,2,0,0.,24.0,0.,24.0,0.,24.0,0.,24.0
1981-08-25 10:40:11.270 ,1,1,0.,24.0,0.,24.0,0.,24.0,0.,24.0
1981-08-25 10:40:35.270 ,1,0,0.,24.0,0.,24.0,0.,24.0,0.,24.0
1981-08-25 10:40:59.270 ,0,1,0.,24.0,0.,24.0,0.,24.0,0.,24.0
1981-08-25 10:41:23.270 ,0,0,0.,24.0,0.,24.0,0.,24.0,0.,24.0
1981-08-25 10:41:47.270 ,0,1,0.,24.0,0.,24.0,0.,24.0,0.,24.0
1981-08-25 10:42:11.270 ,0,0,0.,24.0,0.,24.0,0.,24.0,0.,24.0
1981-08-25 10:42:35.270 ,1,1,0.,24.0,1.,24.0,0.,24.0,0.,24.0
1981-08-25 10:42:59.270 ,1,0,0.,24.0,0.,24.0,0.,24.0,0.,24.0
1981-08-25 10:43:23.270 ,2,1,0.,24.0,0.,24.0,0.,24.0,0.,24.0
1981-08-25 10:43:47.270 ,2,0,0.,24.0,0.,24.0,0.,24.0,0.,24.0
1981-08-25 10:44:11.270 ,3,1,0.,24.0,0.,24.0,0.,24.0,0.,24.0
1981-08-25 10:44:35.270 ,3,0,0.,24.0,0.,24.0,0.,24.0,0.,24.0
1981-08-25 10:44:59.270 ,4,1,0.,24.0,0.,24.0,0.,24.0,0.,24.0
1981-08-25 10:45:23.270 ,4,0,0.,24.0,0.,24.0,0.,24.0,0.,24.0
1981-08-25 10:45:47.270 ,5,1,0.,24.0,0.,24.0,0.,24.0,0.,24.0
1981-08-25 10:46:11.270 ,5,0,0.,24.0,0.,24.0,0.,24.0,0.,24.0
1981-08-25 10:46:35.270 ,6,1,0.,24.0,0.,24.0,0.,24.0,0.,24.0
1981-08-25 10:46:59.270 ,6,0,0.,24.0,0.,24.0,0.,24.0,0.,24.0
1981-08-25 10:47:23.270 ,7,1,9.,24.0,0.,24.0,0.,24.0,0.,24.0
1981-08-25 10:47:47.270 ,7,0,37.,24.0,0.,24.0,0.,24.0,0.,24.0
1981-08-25 10:48:11.270 ,7,1,27.,24.0,0.,24.0,0.,24.0,0.,24.0
1981-08-25 10:48:35.270 ,7,0,25.,24.0,0.,24.0,0.,24.0,0.,24.0
1981-08-25 10:48:59.270 ,6,1,30.,24.0,0.,24.0,0.,24.0,0.,24.0
1981-08-25 10:49:23.270 ,6,0,0.,24.0,0.,24.0,0.,24.0,0.,24.0
1981-08-25 10:49:47.270 ,5,1,0.,24.0,0.,24.0,0.,24.0,0.,24.0
1981-08-25 10:50:11.270 ,5,0,0.,24.0,0.,24.0,0.,24.0,0.,24.0
1981-08-25 10:50:35.270 ,4,1,2.,24.0,0.,24.0,0.,24.0,0.,24.0
1981-08-25 10:50:59.270 ,4,0,1.,24.0,0.,24.0,0.,24.0,0.,24.0
1981-08-25 10:51:23.270 ,3,1,0.,24.0,0.,24.0,0.,24.0,0.,24.0
1981-08-25 10:51:47.270 ,3,0,0.,24.0,0.,24.0,0.,24.0,0.,24.0
1981-08-25 10:52:11.270 ,2,1,0.,24.0,0.,24.0,0.,24.0,0.,24.0
1981-08-25 10:52:35.270 ,2,0,0.,24.0,0.,24.0,0.,24.0,0.,24.0
1981-08-25 10:52:59.270 ,1,1,0.,24.0,0.,24.0,0.,24.0,0.,24.0
1981-08-25 10:53:23.270 ,1,0,0.,24.0,0.,24.0,0.,24.0,0.,24.0
1981-08-25 10:53:47.270 ,0,1,0.,24.0,0.,24.0,0.,24.0,0.,24.0
1981-08-25 10:54:11.270 ,0,0,0.,24.0,0.,24.0,0.,24.0,0.,24.0
1981-08-25 10:54:35.270 ,0,1,0.,24.0,0.,24.0,0.,24.0,0.,24.0
1981-08-25 10:54:59.270 ,0,0,0.,24.0,0.,24.0,0.,24.0,0.,24.0
1981-08-25 10:55:23.270 ,1,1,0.,24.0,0.,24.0,0.,24.0,0.,24.0
1981-08-25 10:55:47.270 ,1,0,0.,24.0,0.,24.0,0.,24.0,0.,24.0
1981-08-25 10:56:59.270 ,0,0,0.,24.0,0.,24.0,0.,24.0,0.,24.0
1981-08-25 10:57:23.270 ,0,0,0.,24.0,0.,24.0,0.,24.0,0.,24.0
1981-08-25 10:57:47.270 ,4,1,0.,24.0,0.,24.0,0.,24.0,0.,24.0
1981-08-25 10:58:11.270 ,4,0,0.,24.0,0.,24.0,0.,24.0,0.,24.0
1981-08-25 10:58:35.270 ,5,1,0.,24.0,0.,24.0,0.,24.0,0.,24.0
1981-08-25 10:58:59.270 ,5,0,0.,24.0,0.,24.0,0.,24.0,0.,24.0
1981-08-25 10:59:23.270 ,6,1,0.,24.0,0.,24.0,0.,24.0,0.,24.0
1981-08-25 10:59:47.270 ,6,0,0.,24.0,0.,24.0,0.,24.0,0.,24.0
1981-08-25 11:00:11.270 ,7,1,13.,24.0,0.,24.0,0.,24.0,0.,24.0
1981-08-25 11:00:35.270 ,7,0,31.,24.0,0.,24.0,0.,24.0,0.,24.0
1981-08-25 11:00:59.270 ,7,1,25.,24.0,0.,24.0,0.,24.0,0.,24.0
1981-08-25 11:01:23.270 ,7,0,32.,24.0,0.,24.0,0.,24.0,0.,24.0
1981-08-25 11:01:47.270 ,6,1,18.,24.0,0.,24.0,0.,24.0,0.,24.0
1981-08-25 11:02:11.270 ,6,0,0.,24.0,0.,24.0,0.,24.0,0.,24.0
1981-08-25 11:02:35.270 ,5,1,0.,24.0,0.,24.0,0.,24.0,0.,24.0
1981-08-25 11:02:59.270 ,5,0,1.,24.0,0.,24.0,0.,24.0,0.,24.0
1981-08-25 11:03:23.270 ,4,1,0.,24.0,0.,24.0,0.,24.0,0.,24.0
1981-08-25 11:03:47.270 ,4,0,0.,24.0,0.,24.0,0.,24.0,0.,24.0
1981-08-25 11:04:11.270 ,3,1,0.,24.0,0.,24.0,0.,24.0,0.,24.0
1981-08-25 11:04:35.270 ,3,0,0.,24.0,0.,24.0,0.,24.0,0.,24.0
1981-08-25 11:04:59.270 ,2,1,1.,24.0,0.,24.0,0.,24.0,0.,24.0
1981-08-25 11:05:23.270 ,2,0,0.,24.0,0.,24.0,0.,24.0,0.,24.0
1981-08-25 11:05:47.270 ,1,1,0.,24.0,0.,24.0,0.,24.0,0.,24.0
1981-08-25 11:06:11.270 ,1,0,0.,24.0,0.,24.0,0.,24.0,0.,24.0
1981-08-25 11:06:35.270 ,0,1,0.,24.0,0.,24.0,0.,24.0,0.,24.0
1981-08-25 11:06:59.270 ,0,0,0.,24.0,0.,24.0,0.,24.0,0.,24.0
1981-08-25 11:07:23.270 ,0,1,0.,24.0,0.,24.0,0.,24.0,0.,24.0
1981-08-25 11:07:47.270 ,0,0,1.,24.0,0.,24.0,0.,24.0,0.,24.0
1981-08-25 11:08:11.270 ,1,1,0.,24.0,0.,24.0,0.,24.0,0.,24.0
1981-08-25 11:08:35.270 ,1,0,0.,24.0,0.,24.0,0.,24.0,0.,24.0
1981-08-25 11:08:59.270 ,2,1,0.,24.0,0.,24.0,0.,24.0,0.,24.0
1981-08-25 11:09:23.270 ,2,0,0.,24.0,0.,24.0,0.,24.0,0.,24.0
1981-08-25 11:09:47.270 ,3,1,0.,24.0,0.,24.0,0.,24.0,0.,24.0
1981-08-25 11:10:11.270 ,3,0,0.,24.0,0.,24.0,0.,24.0,0.,24.0
1981-08-25 11:11:23.270 ,0,0,0.,24.0,0.,24.0,0.,24.0,0.,24.0
1981-08-25 11:11:47.270 ,0,0,0.,24.0,0.,24.0,0.,24.0,0.,24.0
1981-08-25 11:12:11.270 ,6,1,0.,24.0,0.,24.0,0.,24.0,0.,24.0
1981-08-25 11:12:35.270 ,6,0,0.,24.0,0.,24.0,0.,24.0,0.,24.0
1981-08-25 11:12:59.270 ,7,1,7.,24.0,0.,24.0,0.,24.0,0.,24.0
1981-08-25 11:13:23.270 ,7,0,27.,24.0,0.,24.0,0.,24.0,0.,24.0
1981-08-25 11:13:47.270 ,7,1,39.,24.0,0.,24.0,0.,24.0,0.,24.0
1981-08-25 11:14:11.270 ,7,0,32.,24.0,0.,24.0,0.,24.0,0.,24.0
1981-08-25 11:14:35.270 ,6,1,25.,24.0,0.,24.0,0.,24.0,0.,24.0
1981-08-25 11:14:59.270 ,6,0,0.,24.0,0.,24.0,0.,24.0,0.,24.0
1981-08-25 11:15:23.270 ,5,1,0.,24.0,0.,24.0,0.,24.0,0.,24.0
1981-08-25 11:15:47.270 ,5,0,1.,24.0,0.,24.0,0.,24.0,0.,24.0
1981-08-25 11:16:11.270 ,4,1,0.,24.0,0.,24.0,0.,24.0,0.,24.0
1981-08-25 11:16:35.270 ,4,0,0.,24.0,0.,24.0,0.,24.0,0.,24.0
1981-08-25 11:16:59.270 ,3,1,0.,24.0,0.,24.0,0.,24.0,0.,24.0
1981-08-25 11:17:23.270 ,3,0,0.,24.0,0.,24.0,0.,24.0,0.,24.0
1981-08-25 11:17:47.270 ,2,1,0.,24.0,0.,24.0,0.,24.0,0.,24.0
1981-08-25 11:18:11.270 ,2,0,0.,24.0,0.,24.0,0.,24.0,0.,24.0
1981-08-25 11:18:35.270 ,1,1,0.,24.0,0.,24.0,0.,24.0,0.,24.0
1981-08-25 11:18:59.270 ,1,0,0.,24.0,1.,24.0,0.,24.0,0.,24.0
1981-08-25 11:19:23.270 ,0,1,0.,24.0,0.,24.0,0.,24.0,0.,24.0
1981-08-25 11:19:47.270 ,0,0,0.,24.0,0.,24.0,0.,24.0,0.,24.0
1981-08-25 11:20:11.270 ,0,1,0.,24.0,0.,24.0,0.,24.0,0.,24.0
1981-08-25 11:20:35.270 ,0,0,0.,24.0,0.,24.0,0.,24.0,0.,24.0
1981-08-25 11:20:59.270 ,1,1,0.,24.0,0.,24.0,0.,24.0,0.,24.0
1981-08-25 11:21:23.270 ,1,0,0.,24.0,0.,24.0,0.,24.0,0.,24.0
1981-08-25 11:21:47.270 ,2,1,0.,24.0,0.,24.0,0.,24.0,0.,24.0
1981-08-25 11:22:11.270 ,2,0,0.,24.0,0.,24.0,0.,24.0,0.,24.0
1981-08-25 11:22:35.270 ,3,1,0.,24.0,0.,24.0,0.,24.0,0.,24.0
1981-08-25 11:22:59.270 ,3,0,0.,24.0,0.,24.0,0.,24.0,0.,24.0
1981-08-25 11:23:23.270 ,4,1,0.,24.0,0.,24.0,0.,24.0,0.,24.0
1981-08-25 11:23:47.270 ,4,0,0.,24.0,0.,24.0,0.,24.0,0.,24.0
1981-08-25 11:24:11.270 ,5,1,0.,24.0,0.,24.0,0.,24.0,0.,24.0
1981-08-25 11:24:35.270 ,5,0,0.,24.0,1.,24.0,0.,24.0,0.,24.0
1981-08-25 11:24:59.270 ,6,1,0.,24.0,0.,24.0,0.,24.0,0.,24.0
1981-08-25 11:25:23.270 ,6,0,0.,24.0,0.,24.0,0.,24.0,0.,24.0
1981-08-25 11:25:47.270 ,7,1,7.,24.0,0.,24.0,0.,24.0,0.,24.0
1981-08-25 11:26:11.270 ,7,0,28.,24.0,0.,24.0,0.,24.0,0.,24.0
1981-08-25 11:26:35.270 ,7,1,36.,24.0,0.,24.0,0.,24.0,0.,24.0
1981-08-25 11:26:59.270 ,7,0,26.,24.0,0.,24.0,0.,24.0,0.,24.0
1981-08-25 11:27:23.270 ,6,1,24.,24.0,0.,24.0,0.,24.0,0.,24.0
1981-08-25 11:27:47.270 ,6,0,0.,24.0,0.,24.0,0.,24.0,0.,24.0
1981-08-25 11:28:11.270 ,5,1,0.,24.0,0.,24.0,0.,24.0,0.,24.0
1981-08-25 11:28:35.270 ,5,0,0.,24.0,0.,24.0,0.,24.0,0.,24.0
1981-08-25 11:28:59.270 ,4,1,0.,24.0,0.,24.0,0.,24.0,0.,24.0
1981-08-25 11:29:23.270 ,4,0,2.,24.0,0.,24.0,0.,24.0,0.,24.0
1981-08-25 11:30:35.270 ,0,0,0.,24.0,1.,24.0,0.,24.0,0.,24.0
1981-08-25 11:30:59.270 ,0,0,0.,24.0,0.,24.0,0.,24.0,0.,24.0
1981-08-25 11:31:23.270 ,1,1,0.,24.0,0.,24.0,0.,24.0,0.,24.0
1981-08-25 11:31:47.270 ,1,0,0.,24.0,0.,24.0,0.,24.0,0.,24.0
1981-08-25 11:32:11.270 ,0,1,0.,24.0,0.,24.0,0.,24.0,0.,24.0
1981-08-25 11:32:35.270 ,0,0,0.,24.0,0.,24.0,0.,24.0,0.,24.0
1981-08-25 11:32:59.270 ,0,1,0.,24.0,0.,24.0,0.,24.0,0.,24.0
1981-08-25 11:33:23.270 ,0,0,0.,24.0,0.,24.0,0.,24.0,0.,24.0
1981-08-25 11:33:47.270 ,1,1,0.,24.0,0.,24.0,0.,24.0,0.,24.0
1981-08-25 11:34:11.270 ,1,0,0.,24.0,0.,24.0,0.,24.0,0.,24.0
1981-08-25 11:34:35.270 ,2,1,0.,24.0,0.,24.0,0.,24.0,0.,24.0
1981-08-25 11:34:59.270 ,2,0,0.,24.0,0.,24.0,0.,24.0,0.,24.0
1981-08-25 11:35:23.270 ,3,1,0.,24.0,1.,24.0,0.,24.0,0.,24.0
1981-08-25 11:35:47.270 ,3,0,0.,24.0,0.,24.0,0.,24.0,0.,24.0
1981-08-25 11:36:11.270 ,4,1,0.,24.0,0.,24.0,0.,24.0,0.,24.0
1981-08-25 11:36:35.270 ,4,0,0.,24.0,0.,24.0,0.,24.0,0.,24.0
1981-08-25 11:36:59.270 ,5,1,0.,24.0,0.,24.0,0.,24.0,0.,24.0